Tracking 31027 objects as of 19-Jul-2025
HD Live streaming from Space Station
objects crossing your sky now

COSMOS 2112

Track COSMOS 2112 now!
10-day predictions
COSMOS 2112 is classified as:


NORAD ID: 21014
Int'l Code: 1990-111A
Perigee: 766.1 km
Apogee: 803.7 km
Inclination: 74.0 °
Period: 100.4 minutes
Semi major axis: 7155 km
RCS: 2.2033 m2 (large)
Launch date: December 10, 1990
Source: Commonwealth of Independent States (former USSR) (CIS)
Launch site: PLESETSK MISSILE AND SPACE COMPLEX (PKMTR)
Your satellite tracking list
IRIDIUM 106
Track 1 satellite(s)




NASA's NSSDC Master Catalog

Two Line Element Set (TLE):
1 21014U 90111A   25199.41252870  .00000096  00000-0  43231-4 0  9997
2 21014  74.0450 195.4252 0026284 108.0259 252.3761 14.34178390809424
Source of the keplerian elements: AFSPC